Weather in Aurangabad

India     19°52′49″N   75°21′23″E
temp.,
°C
wind,
m/s
gust,
m/s
humid.,
%
clouds,
%
prec.,
mm/h
press.,
hPa
HPBL,
m
15 april, thu
thu1523:30+25ne24450 2.1 1013152
02:30+24se22462 0.0 101247
05:30+23ese33500 0.0 101265
08:30+26sse34450 0.0 1014565
11:30+31w33280 0.0 10121565
14:30+34wnw33171 0.0 10083664
17:30+34nw44141 0.0 10073822
20:30+31n47170 0.0 1009169
16 april, fri
fri1623:30+29wnw22200 0.0 100940
02:30+26nw36265 0.0 1009136
05:30+25nw4102817 0.0 1010297
08:30+29n68250 0.0 1013810
11:30+34n54180 0.0 10122327
14:30+35n33155 0.0 10083786
17:30+35nnw53144 0.0 10073883
20:30+32n36180 0.0 1009116
17 april, sat
sat1723:30+29wnw23210 0.0 101051
02:30+27nnw410250 0.0 1009279
05:30+26nnw48250 0.0 1010198
08:30+29nnw69290 0.0 1013613
11:30+34n65212 0.0 10121987
14:30+36nnw441723 0.0 10094184
17:30+36nnw341630 0.0 10083716
20:30+32nne792460 0.0 1010332
18 april, sun
sun1823:30+30nw611204 0.0 1012474
02:30+28nnw411204 0.0 1010243
05:30+27nnw412271 0.0 1011277
08:30+30n811241 0.0 1013809
11:30+35n65170 0.0 10122177
14:30+37nw45145 0.0 10084147
17:30+36nnw551417 0.0 10073999
20:30+34nne221777 0.0 100945
19 april, mon
mon1923:30+31wnw48235 0.0 1010265
02:30+29wnw33237 0.0 100935
05:30+27nw472511 0.0 1010132
08:30+31nw68255 0.0 1011675
11:30+35nnw66194 0.0 10101970
14:30+37nw561557 0.0 10064347
17:30+36nw7716100 0.0 10054192
20:30+32wnw59234 0.0 1008487